Flag for Germany Weather past 2 weeks in Ingelheim am Rhein, Rhineland-Palatinate, Germany

Now
66 °F

Overcast.


Feels Like: 66 °F
Forecast: 63 / 78 °F
Wind: 5 mph from West

Location: Wiesbaden Airport

Current Time: Jul 29, 2014 at 11:37:07 PM

Latest Report: Jul 29, 2014 at 10:59 PM


Visibility: N/A

Pressure: 29.77 "Hg

Humidity: 94%

Dew point: 64 °F

Location of Ingelheim am RheinLocation

Historic Weather in Ingelheim am Rhein — Graph

°F

Ingelheim am Rhein temperature yesterday

Maximum temperature yesterday: 83 °F (at 2:58 PM)
Minimum temperature yesterday: 63 °F (at 5:58 AM)
Average temperature yesterday: 72 °F

Past Weeks' High & Low Weather Summary

 TemperatureHumidityPressure
High92 °F (Jul 19, 4:58 PM)100% (Jul 21, 2:58 AM)30.19 "Hg (Jul 21, 2:58 AM)
Low59 °F (Jul 15, 5:55 AM)25% (Jul 18, 6:58 PM)29.72 "Hg (Jul 29, 5:57 PM)
Average73 °F66%29.95 "Hg
* Reported Jul 14 9:55 PM — Jul 29 9:58 PM, Ingelheim am Rhein, Weather by CustomWeather, © 2014

Note: Actual official high and low records may vary slightly from our data, if they occured in-between our weather recording intervals... More about our weather records

Advertising

Ingelheim am Rhein weather history for previous 24 hours

 ConditionsComfort  
Time TempWeatherWind HumidityBarometerVisibility
9:58 PM
Jul 29
66 °FLight rain. Partly sunny.7 mph94%29.77 "HgN/A
8:58 PM67 °FMostly cloudy.5 mph97%29.78 "HgN/A
7:55 PM66 °FLight rain. Scattered clouds.6 mph94%29.77 "HgN/A
6:55 PM66 °FThunderstorms. Overcast.3 mph94%29.77 "HgN/A
5:57 PM80 °FThunderstorms. Partly sunny.7 mph65%29.72 "HgN/A
4:55 PM77 °FScattered clouds.5 mph74%29.73 "HgN/A
3:58 PM77 °FPartly sunny.5 mph68%29.75 "HgN/A
2:58 PM76 °FThundershowers. Scattered clouds.3 mph67%29.75 "HgN/A
1:55 PM79 °FThunderstorms. Partly sunny.7 mph65%29.76 "HgN/A
12:59 PM79 °FPassing clouds.1 mph61%29.79 "HgN/A
12:00 PM75 °FScattered clouds.7 mph69%29.78 "HgN/A
9:58 AM73 °FPartly sunny.3 mph78%29.79 "HgN/A
8:58 AM71 °FPassing clouds.3 mph83%29.79 "HgN/A
7:58 AM70 °FScattered clouds.No wind84%29.78 "HgN/A
6:58 AM66 °FSunny.No wind94%29.76 "HgN/A
5:58 AM67 °FPassing clouds.1 mph90%29.77 "HgN/A
4:58 AM66 °FOvercast.3 mph90%29.77 "HgN/A
3:58 AM66 °FPassing clouds.6 mph94%29.78 "HgN/A
2:58 AM66 °FOvercast.8 mph88%29.78 "HgN/A
1:58 AM66 °FOvercast.2 mph94%29.80 "HgN/A
12:58 AM66 °FPartly cloudy.6 mph94%29.80 "HgN/A
12:01 AM66 °FPassing clouds.12 mph88%29.79 "HgN/A
11:58 PM
Jul 28
67 °FPassing clouds.13 mph89%29.79 "HgN/A
Weather by CustomWeather, © 2014

See weather overviewHow to use our weather pages